Weather History for KIWI - July, 2013

Change the Weather History Date:

Friday, July 19, 2013

  Actual Average Record
Temperature  
Mean Temperature 80 °F -  
Max Temperature 91 °F 74 °F 91 °F (2013)
Min Temperature 69 °F 54 °F 52 °F (1998)
Cooling Degree Days 15    
Growing Degree Days 30 (Base 50)    
Moisture  
Dew Point 70 °F    
Average Humidity 77    
Maximum Humidity 94    
Minimum Humidity 55    
Precipitation  
Precipitation 0.00 in - - ()
Sea Level Pressure  
Sea Level Pressure 29.80 in    
Wind  
Wind Speed 4 mph (SSW)    
Max Wind Speed 14 mph    
Max Gust Speed 18 mph    
Visibility 10 miles    
Events      
Averages and records for this station are not official NWS values.
T = Trace of Precipitation, MM = Missing Value Source: NWS Daily Summary

Daily Weather History Graph

Daily Weather History Graph

Search for Another Location

Airport or City:

Trip Planner

Search our weather history database for the weather conditions in past years. The results will help you decide how hot, cold, wet, or windy it might be!

Date:

Astronomy

Jul. 19, 2013 Rise Set
Actual Time 5:13 AM EDT 8:15 PM EDT
Civil Twilight 4:39 AM EDT 8:50 PM EDT
Nautical Twilight 3:55 AM EDT 9:34 PM EDT
Astronomical Twilight 3:02 AM EDT 10:26 PM EDT
Moon 5:14 PM EDT (7/19) 1:52 AM EDT (7/19)
Length of Visible Light 16h 10m
Length of Day
15h 01m
Waxing Gibbous, 86% of the Moon is Illuminated
Jul 19
Waxing Gibbous
Jul 22
Full
Jul 29
Last Quarter
Aug 6
New
Aug 14
First Quarter

Hourly Weather History & Observations

Time (EDT) Temp. Heat Index Dew Point Humidity Pressure Visibility Wind Dir Wind Speed Gust Speed Precip Events Conditions
12:53 AM 71.1 °F - 68.0 °F 90% 29.96 in 10.0 mi SSE 3.5 mph - N/A   Mostly Cloudy
1:19 AM 71.6 °F - 68.0 °F 88% 29.96 in 10.0 mi SSE 4.6 mph - N/A   Overcast
1:28 AM 71.6 °F - 68.0 °F 88% 29.95 in 10.0 mi Calm Calm - N/A   Overcast
1:53 AM 70.0 °F - 68.0 °F 93% 29.94 in 10.0 mi Calm Calm - N/A   Overcast
2:53 AM 70.0 °F - 68.0 °F 93% 29.92 in 10.0 mi South 3.5 mph - N/A   Mostly Cloudy
3:32 AM 69.8 °F - 68.0 °F 94% 29.91 in 10.0 mi South 3.5 mph - N/A   Scattered Clouds
3:53 AM 70.0 °F - 66.9 °F 90% 29.90 in 10.0 mi South 3.5 mph - N/A   Mostly Cloudy
4:18 AM 69.8 °F - 68.0 °F 94% 29.90 in 10.0 mi Calm Calm - N/A   Overcast
4:53 AM 70.0 °F - 68.0 °F 93% 29.88 in 10.0 mi Calm Calm - N/A   Overcast
5:53 AM 70.0 °F - 68.0 °F 93% 29.88 in 10.0 mi Calm Calm - N/A   Overcast
6:07 AM 71.6 °F - 68.0 °F 88% 29.87 in 9.0 mi South 3.5 mph - N/A   Overcast
6:53 AM 71.1 °F - 69.1 °F 93% 29.88 in 5.0 mi Calm Calm - N/A   Overcast
7:53 AM 73.9 °F - 70.0 °F 87% 29.86 in 9.0 mi SSW 3.5 mph - N/A   Scattered Clouds
8:53 AM 77.0 °F - 70.0 °F 79% 29.84 in 10.0 mi South 4.6 mph - N/A   Clear
9:53 AM 80.1 °F 83.6 °F 71.1 °F 74% 29.83 in 10.0 mi South 6.9 mph - N/A   Clear
10:53 AM 79.0 °F - 71.1 °F 77% 29.82 in 10.0 mi Variable 3.5 mph - N/A   Clear
11:53 AM 84.9 °F 91.4 °F 73.0 °F 67% 29.78 in 10.0 mi SSW 9.2 mph - N/A   Clear
12:53 PM 87.1 °F 95.4 °F 73.9 °F 65% 29.75 in 10.0 mi SSW 9.2 mph - N/A   Clear
1:53 PM 86.0 °F 93.8 °F 73.9 °F 67% 29.73 in 10.0 mi SW 10.4 mph 16.1 mph N/A   Clear
2:53 PM 91.0 °F 99.3 °F 73.0 °F 55% 29.70 in 10.0 mi SW 13.8 mph 18.4 mph N/A   Clear
3:53 PM 91.0 °F 99.3 °F 73.0 °F 55% 29.67 in 10.0 mi SSW 9.2 mph - N/A   Clear
4:53 PM 90.0 °F 96.9 °F 72.0 °F 55% 29.66 in 10.0 mi SW 8.1 mph - N/A   Clear
5:53 PM 89.1 °F 96.0 °F 72.0 °F 57% 29.65 in 10.0 mi SSW 5.8 mph - N/A   Clear
6:53 PM 87.1 °F 93.6 °F 72.0 °F 61% 29.65 in 10.0 mi South 3.5 mph - N/A   Clear
7:53 PM 84.0 °F 89.0 °F 71.1 °F 65% 29.65 in 10.0 mi South 3.5 mph - N/A   Clear
8:53 PM 82.0 °F 86.3 °F 71.1 °F 69% 29.66 in 10.0 mi Calm Calm - N/A   Clear
9:53 PM 82.9 °F 88.0 °F 72.0 °F 69% 29.67 in 10.0 mi Variable 4.6 mph - N/A   Clear
10:53 PM 84.0 °F 89.6 °F 72.0 °F 67% 29.67 in 10.0 mi SSW 11.5 mph 17.3 mph N/A   Mostly Cloudy
11:53 PM 81.0 °F 85.2 °F 72.0 °F 74% 29.68 in 10.0 mi Calm Calm - N/A   Scattered Clouds